カタログに戻る

MOKHA-1

運用中科学SSO
NORAD 67274·PAYLOAD·🇷🇺 Russia
この衛星名は、まだ公式ソースで確認されていません。

打ち上げ Dec 28, 2025 から Vostochny Cosmodrome

Loading…

次のパス (今後24時間)

TLE

最新Source: Space-Track

元期: Sep 14, 2026, 10:53 UTC

1 67274U 25313AC  26257.45355726  .00004894  00000-0  20760-3 0  9992
2 67274  97.3860 330.6125 0015475  54.8768 305.3917 15.23468747 39536

AllMySatでMOKHA-1をリアルタイム追跡

Download on the App Store